Volver al catálogo

STARLINK-6177

ActivoComunicacionesVLEO
NORAD 56880·PAYLOAD·🇺🇸 United States

Lanzado Jun 12, 2023 desde Cape Canaveral Space Force Station

Loading…

Próximos Pases (próximas 24 horas)

TLE

ActualizadoSource: CelesTrak SupGP

Época: Sep 14, 2026, 21:59 UTC

1 56880C 23083E   26257.91645833  .00018662  00000+0  67605-3 0  2570
2 56880  43.0026  96.5296 0001353 274.6046 329.2268 15.27564555    10

Sigue STARLINK-6177 en tiempo real con AllMySat

Download on the App Store